CAPE
3 5 4 6 4 2 1 0 0 0 0 0 0 0 0 0 0 0 0 0 0 0 0 0 0 0 0 0 0 0 53 0 0 0 0 0 0 0 0 0 0 47 1 0 0 0 2
7 5 4 5 3 2 1 0 0 0 0 0 0 0 0 0 0 0 0 0 0 0 0 0 0 0 0 0 0 0 0 0 0 0 0 0 0 0 0 0 0 14 4 22 9 19 7
6 4 4 4 3 3 2 1 0 0 0 0 0 0 0 0 0 0 0 0 0 0 0 0 0 0 0 0 0 0 0 0 0 0 0 0 0 0 0 0 0 0 27 69 23 22 3
11 6 5 5 3 2 2 2 1 0 0 0 0 0 0 0 0 0 0 0 0 0 0 0 0 0 0 0 0 0 0 0 0 0 0 0 0 0 0 0 0 0 9 27 169 7 18
11 10 6 3 3 3 2 2 1 1 0 0 0 0 0 0 0 0 0 0 0 0 0 0 5 0 0 0 0 0 0 0 0 0 0 0 0 0 0 0 0 0 0 41 11 1 0
7 10 6 3 5 3 3 2 1 1 0 0 0 0 0 0 0 0 0 0 0 0 0 0 0 0 0 0 0 0 0 0 0 0 0 0 0 0 0 0 0 0 0 0 0 1 0
8 6 2 6 6 6 4 2 1 1 0 1 1 1 1 0 0 0 0 0 0 0 0 0 0 0 0 0 0 0 0 0 0 0 0 0 0 0 0 0 0 0 0 0 0 0 0
24 16 11 6 8 4 5 3 1 1 1 0 0 1 1 0 0 0 0 0 0 0 0 0 0 0 0 0 0 0 0 0 0 0 0 0 0 0 0 0 0 0 0 0 0 0 0
12 9 5 8 7 6 4 3 2 1 1 0 1 1 1 0 0 0 0 0 0 0 0 0 0 0 0 0 0 0 0 0 0 0 0 0 0 0 0 0 0 0 0 0 0 0 0
24 3 11 12 8 6 4 3 2 1 0 2 2 1 0 1 0 0 0 0 0 0 0 0 0 0 0 0 0 0 0 0 0 0 0 0 0 0 0 0 0 0 0 0 0 0 40
21 2 7 12 7 7 4 3 2 2 3 2 2 1 0 0 0 0 0 0 0 0 0 0 0 0 0 0 0 0 0 0 1 0 0 0 0 0 0 0 0 0 0 0 0 0 4
19 12 10 7 4 8 4 7 7 5 4 2 1 0 1 0 0 0 0 0 0 0 0 0 0 0 0 0 0 0 0 0 0 0 0 0 0 0 0 0 0 0 0 0 5 17 29
10 20 17 12 7 5 3 11 8 4 2 1 0 0 0 0 0 0 0 0 0 0 0 0 0 0 0 0 0 0 0 2 10 18 25 0 0 0 0 0 0 0 0 49 134 250 150
3 2 2 10 7 3 10 8 6 3 2 0 0 0 0 0 0 0 0 0 0 0 0 0 0 0 0 0 0 0 3 28 1 1 44 63 38 0 0 0 1 24 34 64 174 219 286
5 7 8 8 8 11 11 6 6 3 0 0 0 0 0 0 0 0 0 0 0 0 0 0 0 0 0 0 0 0 5 40 28 10 90 61 46 0 0 0 0 8 30 25 42 90 146
8 6 5 9 10 15 11 10 5 2 0 0 0 0 0 0 0 0 0 0 0 0 0 0 0 0 0 0 0 0 0 1 13 7 19 71 115 9 0 0 0 2 55 112 60 126 155
7 5 6 6 8 10 11 8 4 0 0 0 0 0 0 0 0 0 0 0 0 0 0 0 0 0 0 0 0 0 0 0 0 5 1 14 58 51 0 0 5 46 27 46 55 221 316
10 10 7 7 22 15 10 7 2 0 0 0 0 0 0 0 0 0 0 0 0 0 0 0 0 0 0 0 0 0 0 0 0 0 0 1 49 115 25 0 0 0 69 84 176 249 213
6 9 5 17 11 13 12 6 1 0 0 0 0 0 0 0 0 0 0 0 0 0 0 0 0 0 0 0 0 0 0 0 0 0 1 1 4 110 86 11 1 0 0 17 153 322 453
4 7 5 10 9 15 14 8 0 0 0 0 0 0 0 0 0 0 0 0 0 0 0 0 0 0 0 0 0 0 0 0 0 0 433 24 12 67 129 67 101 34 24 19 69 271 206
5 10 11 8 10 6 13 9 0 0 0 0 0 0 0 0 0 0 0 0 0 0 0 0 0 0 0 0 0 0 0 0 0 0 0 1 77 76 85 3 4 48 56 105 47 103 204
6 12 9 3 9 6 8 8 0 0 0 0 0 1 0 0 0 0 0 0 0 0 0 0 0 0 0 0 0 0 0 0 0 0 0 5 137 88 103 26 0 2 0 0 71 78 162
7 18 5 1 11 5 5 8 3 0 0 0 0 0 0 0 0 0 0 0 0 0 0 0 0 0 0 0 0 0 1 27 40 41 13 54 119 44 112 6 31 102 53 8 30 218 225
6 2 1 2 9 4 9 7 8 0 0 0 0 0 0 0 0 0 0 0 0 0 0 0 0 0 2 0 0 0 0 0 0 0 5 90 235 201 159 114 84 180 164 189 61 38 128
0 0 3 3 6 5 11 6 7 2 0 0 0 0 0 0 0 0 0 1 0 1 0 0 0 2 0 0 0 0 0 0 0 0 0 0 2 6 4 8 40 111 158 180 71 118 166
0 0 4 1 12 13 12 7 6 7 0 0 0 0 0 0 0 0 0 0 1 0 0 0 0 0 0 0 0 0 0 0 0 0 0 0 0 0 0 0 41 156 314 530 288 482 418
0 0 2 0 17 19 11 6 7 4 0 0 0 0 0 0 0 0 0 0 0 0 6 9 8 0 0 0 0 0 0 0 0 1 0 0 0 0 0 0 0 67 1184 1096 316 949 2178
2 0 0 0 9 8 8 8 7 5 1 0 0 0 0 0 0 0 0 0 0 0 0 14 0 0 4 0 0 0 0 0 0 5 33 32 0 0 0 0 0 476 806 664 2400 2349 2459
22 0 0 0 8 13 7 9 9 7 1 0 0 0 0 0 0 0 0 0 0 0 0 1 0 25 0 0 0 3 13 12 16 7 0 154 26 161 35 12 1506 1313 2125 2207 2252 2360 2579
CIN
-0 -0 -0 -0 -0 -0 -0 -0 -0 -0 -0 -0 -0 -0 -0 -0 -0 -0 -0 -0 -0 -0 -0 -0 -0 -0 -0 -0 -0 -140 -1138 -150 -0 -0 -0 -0 -0 -0 -0 -0 -0 -74 -29 -15 -11 -0 -24
-0 -0 -0 -0 -0 -0 -0 -0 -0 -0 -0 -0 -0 -0 -0 -0 -0 -0 -0 -0 -0 -0 -0 -0 -0 -0 -0 -0 -0 -0 -0 -0 -0 -0 -0 -0 -0 -0 -0 -0 -0 -26 -84 -78 -71 -55 -58
-0 -0 -0 -0 -0 -0 -0 -0 -0 -0 -0 -0 -0 -0 -0 -0 -0 -0 -0 -0 -0 -0 -0 -0 -0 -0 -0 -0 -0 -0 -0 -0 -0 -0 -0 -0 -0 -0 -0 -0 -0 -0 -95 -43 -48 -48 -57
-0 -0 -0 -0 -0 -0 -0 -0 -0 -0 -0 -0 -0 -0 -0 -0 -0 -0 -0 -0 -0 -0 -0 -0 -0 -0 -0 -0 -0 -0 -0 -0 -0 -0 -0 -0 -0 -0 -0 -0 -0 -0 -74 -15 -1 -51 -60
-0 -0 -0 -0 -0 -0 -0 -0 -0 -0 -0 -0 -0 -0 -0 -0 -0 -0 -0 -0 -0 -0 -0 -0 -375 -0 -0 -0 -0 -0 -0 -0 -0 -0 -0 -0 -0 -0 -0 -0 -0 -0 -0 -1 -0 -46 -0
-0 -0 -0 -0 -0 -0 -0 -0 -0 -0 -0 -0 -0 -0 -0 -0 -0 -0 -0 -0 -0 -0 -0 -0 -0 -0 -0 -0 -0 -0 -0 -0 -0 -0 -0 -0 -0 -0 -0 -0 -0 -0 -0 -0 -0 -16 -0
-0 -0 -0 -0 -0 -0 -0 -0 -0 -0 -0 -0 -0 -0 -0 -0 -0 -0 -0 -0 -0 -0 -0 -0 -0 -0 -0 -0 -0 -0 -0 -0 -0 -0 -0 -0 -0 -0 -0 -0 -0 -0 -0 -0 -0 -0 -0
-0 -0 -0 -0 -0 -0 -0 -0 -0 -0 -0 -0 -0 -0 -0 -0 -0 -0 -0 -0 -0 -0 -0 -0 -0 -0 -0 -0 -0 -0 -0 -0 -0 -0 -0 -0 -0 -0 -0 -0 -0 -0 -0 -0 -0 -0 -0
-0 -0 -0 -0 -0 -0 -0 -0 -0 -0 -0 -0 -0 -0 -0 -0 -0 -0 -0 -0 -0 -0 -0 -0 -0 -0 -0 -0 -0 -0 -0 -0 -0 -0 -0 -0 -0 -0 -0 -0 -0 -0 -0 -0 -0 -0 -0
-0 -0 -0 -0 -0 -0 -0 -0 -0 -0 -0 -0 -0 -0 -0 -0 -0 -0 -0 -0 -0 -0 -0 -0 -0 -0 -0 -0 -0 -0 -0 -0 -0 -0 -0 -0 -0 -0 -0 -0 -0 -0 -0 -0 -0 -0 -3
-0 -0 -0 -0 -0 -0 -0 -0 -0 -0 -0 -0 -0 -0 -0 -0 -0 -0 -0 -0 -0 -0 -0 -0 -0 -0 -0 -0 -0 -0 -0 -0 -89 -0 -0 -0 -0 -0 -0 -0 -0 -0 -8 -0 -0 -0 -52
-0 -0 -0 -0 -0 -0 -0 -0 -0 -0 -0 -0 -0 -0 -0 -0 -0 -0 -0 -0 -0 -0 -0 -0 -0 -0 -0 -0 -0 -0 -0 -0 -0 -0 -0 -28 -0 -0 -0 -0 -0 -0 -0 -0 -24 -48 -14
-0 -0 -0 -0 -0 -0 -0 -0 -0 -0 -0 -0 -0 -0 -0 -0 -0 -0 -0 -0 -0 -0 -0 -0 -0 -0 -0 -0 -0 -0 -0 -121 -142 -128 -101 -0 -0 -0 -0 -0 -0 -0 -53 -19 -1 -0 -0
-0 -0 -0 -0 -0 -0 -0 -0 -0 -0 -0 -0 -0 -0 -0 -0 -0 -0 -0 -0 -0 -0 -0 -0 -0 -0 -0 -0 -0 -0 -173 -117 -80 -27 -26 -34 -17 -0 -0 -0 -7 -63 -39 -14 -0 -0 -2
-0 -0 -0 -0 -0 -0 -0 -0 -0 -0 -0 -0 -0 -0 -0 -0 -0 -0 -0 -0 -0 -0 -0 -0 -0 -0 -0 -0 -0 -0 -125 -75 -70 -55 -33 -3 -3 -0 -0 -0 -0 -30 -59 -33 -27 -17 -0
-0 -0 -0 -0 -0 -0 -0 -0 -0 -0 -0 -0 -0 -0 -0 -0 -0 -0 -0 -0 -0 -0 -0 -0 -0 -0 -0 -0 -0 -0 -6 -52 -58 -78 -82 -14 -9 -68 -0 -0 -0 -37 -42 -21 -25 -8 -4
-0 -0 -0 -0 -0 -0 -0 -0 -0 -0 -0 -0 -0 -0 -0 -0 -0 -0 -0 -0 -0 -0 -0 -0 -0 -0 -0 -0 -0 -0 -0 -0 -0 -48 -31 -61 -64 -2 -0 -0 -13 -57 -42 -46 -15 -0 -0
-0 -0 -0 -0 -0 -0 -0 -0 -0 -0 -0 -0 -0 -0 -0 -0 -0 -0 -0 -0 -0 -0 -0 -0 -0 -0 -0 -0 -0 -0 -0 -0 -0 -0 -0 -22 -35 -14 -16 -0 -0 -3 -7 -3 -2 -2 -0
-0 -0 -0 -0 -0 -0 -0 -0 -0 -0 -0 -0 -0 -0 -0 -0 -0 -0 -0 -0 -0 -0 -0 -0 -0 -0 -0 -0 -0 -0 -0 -0 -0 -0 -16 -72 -85 -23 -18 -10 -6 -3 -0 -26 -3 -2 -0
-0 -0 -0 -0 -0 -0 -0 -0 -0 -0 -0 -0 -0 -0 -0 -0 -0 -0 -0 -0 -0 -0 -0 -0 -0 -0 -0 -0 -0 -0 -0 -0 -0 -0 -306 -199 -69 -48 -0 -5 -22 -19 -48 -31 -8 -0 -1
-0 -0 -0 -0 -0 -0 -0 -0 -0 -0 -0 -0 -0 -0 -0 -0 -0 -0 -0 -0 -0 -0 -0 -0 -0 -0 -0 -0 -0 -0 -0 -0 -0 -0 -0 -28 -69 -53 -34 -6 -1 -4 -1 -2 -1 -16 -1
-0 -0 -0 -0 -0 -0 -0 -0 -0 -0 -0 -0 -0 -0 -0 -0 -0 -0 -0 -0 -0 -0 -0 -0 -0 -0 -0 -0 -0 -0 -0 -0 -0 -0 -0 -138 -70 -39 -9 -16 -0 -26 -0 -0 -3 -0 -5
-0 -0 -0 -0 -0 -0 -0 -0 -0 -0 -0 -0 -0 -0 -0 -0 -0 -0 -0 -0 -0 -0 -0 -0 -0 -0 -0 -0 -0 -0 -153 -187 -148 -141 -30 -77 -53 -58 -17 -13 -3 -0 -8 -12 -4 -0 -0
-0 -0 -0 -0 -0 -0 -0 -0 -0 -0 -0 -0 -0 -0 -0 -0 -0 -0 -0 -0 -0 -0 -0 -0 -0 -0 -16 -0 -0 -0 -0 -0 -0 -0 -70 -77 -37 -8 -1 -0 -0 -0 -0 -1 -0 -1 -0
-0 -0 -0 -0 -0 -0 -0 -0 -0 -0 -0 -0 -0 -0 -0 -0 -0 -0 -0 -0 -0 -0 -0 -0 -0 -8 -0 -0 -0 -0 -0 -0 -0 -0 -0 -0 -22 -3 -2 -2 -0 -0 -1 -0 -1 -0 -0
-0 -0 -0 -0 -0 -1 -0 -0 -0 -0 -0 -0 -0 -0 -0 -0 -0 -0 -0 -0 -0 -0 -0 -0 -0 -0 -0 -0 -0 -0 -0 -0 -0 -0 -0 -0 -0 -0 -0 -0 -11 -0 -1 -3 -3 -0 -1
-0 -0 -0 -0 -2 -2 -0 -0 -0 -0 -0 -0 -0 -0 -0 -0 -0 -0 -0 -0 -0 -0 -0 -0 -0 -0 -0 -0 -0 -0 -0 -0 -0 -0 -0 -0 -0 -0 -0 -0 -0 -11 -1 -9 -0 -7 -29
-0 -0 -0 -0 -1 -0 -0 -0 -0 -0 -0 -0 -0 -0 -0 -0 -0 -0 -0 -0 -0 -0 -0 -3 -0 -0 -0 -0 -0 -0 -0 -0 -0 -0 -0 -25 -0 -0 -0 -0 -0 -7 -9 -1 -36 -40 -42
-0 -0 -0 -0 -1 -1 -0 -0 -0 -0 -0 -0 -0 -0 -0 -0 -0 -0 -0 -0 -0 -0 -0 -1 -0 -4 -0 -0 -0 -0 -0 -0 -2 -0 -0 -0 -6 -2 -1 -1 -25 -36 -11 -54 -46 -29 -19
Wind_Speed
14 14 15 15 15 14 14 14 15 15 16 17 17 18 18 19 19 19 19 19 17 16 16 13 11 10 9 9 7 7 7 7 10 7 7 7 8 8 11 2 4 10 3 3 3 5 8
14 14 15 15 15 15 15 15 15 15 16 17 18 18 19 19 19 19 19 19 19 16 15 11 9 9 8 10 3 10 8 9 6 8 3 8 3 5 7 6 10 6 6 8 8 3 6
14 14 14 15 15 15 16 17 17 17 17 17 17 19 19 20 21 20 20 20 20 16 13 7 6 8 9 2 2 8 9 3 1 7 4 1 3 10 2 10 4 10 11 15 12 4 6
15 15 14 15 15 16 17 17 17 18 18 18 18 19 20 21 21 21 21 20 19 11 9 5 6 9 8 4 1 6 7 5 5 5 6 2 6 12 9 6 11 14 17 14 10 1 6
15 15 15 15 16 16 17 18 18 19 19 20 20 20 20 21 21 20 20 19 11 7 8 6 8 7 5 5 10 11 8 6 6 5 3 5 11 12 7 13 14 15 13 19 6 6 5
14 15 15 15 16 16 17 18 19 19 20 20 20 20 21 21 20 20 20 11 5 7 9 9 7 8 7 7 11 8 6 5 7 8 7 10 9 11 11 11 11 7 12 7 4 4 3
14 14 15 16 16 16 16 18 19 20 20 21 20 21 22 22 21 20 17 7 8 9 12 11 1 6 4 5 5 9 9 9 8 9 13 9 11 12 10 4 12 10 8 8 6 2 6
14 14 16 16 16 17 18 19 19 20 21 21 22 21 22 24 23 21 10 9 9 7 10 16 12 7 4 6 8 12 12 12 10 12 12 6 13 1 3 6 8 9 9 10 4 2 9
15 16 15 15 16 18 19 20 20 20 21 22 22 22 23 24 26 10 8 7 7 8 9 11 11 14 11 11 11 16 16 16 11 14 10 16 9 3 7 9 10 11 10 6 8 4 14
15 15 14 16 17 18 20 20 21 21 21 21 21 21 22 27 7 4 7 3 7 4 8 15 11 9 15 11 11 10 17 11 9 11 10 11 3 5 9 10 8 15 6 4 9 11 9
14 15 16 16 18 19 20 21 22 22 22 21 21 21 20 12 13 7 7 5 7 5 9 14 12 8 11 14 12 13 15 12 12 9 5 5 7 9 9 8 5 4 3 7 9 12 13
16 14 16 16 19 19 21 21 21 21 22 22 22 20 21 6 9 9 7 6 6 9 10 9 10 13 16 20 10 13 15 13 9 10 11 12 1 7 12 6 8 4 8 12 12 13 13
16 17 15 16 18 20 21 20 21 22 24 24 23 20 10 8 1 6 7 8 9 11 6 11 12 18 19 15 16 13 18 18 12 12 14 14 13 10 7 9 10 10 11 10 11 12 8
15 17 18 18 20 20 20 21 23 23 25 26 26 20 9 9 6 6 7 9 12 13 8 5 3 12 18 18 18 17 17 18 20 14 12 11 15 17 11 14 10 12 12 12 16 10 5
15 16 17 18 19 19 20 22 23 24 26 26 29 7 8 5 7 6 9 12 11 9 5 7 7 12 14 15 11 17 18 19 18 17 12 8 5 8 4 7 11 14 11 15 17 18 12
15 16 17 18 18 19 20 22 24 26 27 24 7 6 6 1 6 7 10 17 8 6 3 9 12 11 13 13 12 17 17 17 17 16 15 3 6 11 10 7 9 12 9 10 9 15 16
15 16 17 17 18 19 21 22 24 27 30 22 8 7 5 7 8 9 13 19 16 4 6 6 10 5 12 12 16 15 12 4 13 15 12 15 6 8 7 11 14 10 11 12 16 11 10
15 17 17 17 18 18 20 22 24 26 32 10 7 5 6 7 10 11 13 16 4 7 9 8 5 7 4 5 8 12 16 8 5 7 17 16 8 10 14 10 6 11 12 12 10 13 11
15 17 17 19 19 19 20 22 23 23 21 9 6 3 5 8 9 10 13 7 3 13 10 9 9 5 3 5 7 9 8 13 4 9 4 9 8 11 13 12 14 11 14 13 9 12 11
14 16 17 19 20 20 21 22 24 24 20 7 6 6 5 8 10 10 14 11 12 7 10 7 6 1 7 8 5 6 7 6 4 10 9 5 11 11 14 5 12 14 14 13 14 12 13
14 16 17 18 19 21 21 23 25 27 25 6 5 3 7 8 11 11 6 7 16 11 13 10 9 11 10 8 10 7 12 9 9 5 6 9 12 14 17 18 12 11 12 14 13 15 18
13 15 16 17 18 20 21 22 24 29 32 7 7 6 3 4 6 7 8 10 12 14 7 10 14 13 11 9 10 10 11 9 10 12 13 9 8 13 16 15 14 13 12 14 16 13 19
13 14 15 16 18 19 20 21 22 26 26 5 6 4 7 7 9 10 9 9 10 4 7 11 9 13 8 5 10 10 11 7 7 8 7 8 10 11 12 17 20 14 15 15 16 14 16
12 13 14 15 17 18 19 20 20 19 20 10 5 7 7 7 7 9 4 3 5 7 8 8 3 7 9 5 5 9 13 12 12 10 9 8 8 11 11 14 17 9 8 9 11 15 15
10 12 13 14 15 15 17 18 18 17 20 11 5 6 6 9 3 5 6 6 9 6 8 4 6 8 7 5 7 10 11 13 17 17 15 12 10 9 12 12 15 15 7 10 11 13 15
9 11 12 13 14 14 15 16 17 17 19 12 6 6 6 8 3 10 6 9 8 10 11 7 3 2 6 9 11 13 11 12 11 15 18 16 12 11 12 14 18 14 9 7 3 12 11
8 9 10 12 13 14 14 15 16 17 17 12 3 7 6 8 6 6 5 7 7 11 7 9 9 7 10 9 11 11 14 15 13 14 12 14 13 15 13 14 12 16 7 2 11 3 10
7 8 9 10 12 11 12 13 15 16 17 12 4 4 6 6 5 4 5 8 5 6 9 6 3 9 7 12 12 9 10 9 15 12 13 13 13 12 13 16 18 3 7 10 7 5 11
9 7 8 9 12 9 10 12 13 13 15 15 4 2 4 6 7 6 8 10 10 8 9 1 6 8 3 7 10 7 11 6 4 10 8 7 8 5 6 8 8 6 8 6 5 6 5
Wind_Direction
40 38 36 33 30 27 23 19 15 11 4 358 354 348 346 343 338 333 333 328 323 326 317 315 311 306 282 233 68 117 172 172 211 232 232 240 230 245 236 243 232 259 98 246 241 280 326
36 37 35 32 29 23 19 15 11 6 3 357 351 345 343 340 335 332 331 327 323 323 317 308 304 302 255 259 86 140 178 180 235 231 183 238 317 331 311 259 260 50 278 275 264 257 263
37 35 33 28 26 22 17 11 7 2 359 354 350 344 341 337 333 332 328 324 323 320 317 290 284 276 266 352 58 156 184 228 186 263 198 321 303 243 21 240 241 263 261 249 223 255 293
35 31 29 26 24 19 14 8 4 358 354 351 347 344 338 336 331 328 324 321 317 325 309 297 265 262 284 85 165 184 191 178 215 209 303 255 267 276 257 317 257 240 244 255 174 8 103
31 29 25 22 20 15 10 5 0 356 351 347 344 342 337 332 328 324 320 316 296 287 270 252 245 243 251 141 198 191 199 218 184 200 196 267 258 262 226 242 242 216 250 225 128 103 331
25 24 19 15 14 11 7 3 357 353 349 345 342 338 334 330 326 321 315 290 297 263 221 227 262 258 214 219 166 175 175 236 196 193 216 238 238 241 213 238 252 301 203 241 257 181 225
27 22 17 15 11 7 4 0 355 350 347 344 340 336 332 327 323 321 314 218 212 192 224 257 85 267 143 118 151 193 179 201 218 216 230 207 249 221 232 322 352 318 305 301 302 85 269
25 26 17 11 7 6 2 357 353 349 345 342 338 335 331 325 320 315 278 270 46 340 293 214 246 269 277 214 182 189 189 206 198 220 220 198 234 32 59 285 275 264 268 261 262 30 258
18 15 12 7 10 3 358 354 350 347 343 339 336 333 331 324 318 283 282 23 332 314 260 202 218 221 192 211 222 184 198 217 203 224 197 258 66 75 229 228 252 242 269 300 295 304 259
13 15 9 11 5 1 356 351 347 344 340 335 334 331 330 325 296 344 239 28 312 319 266 163 194 210 193 219 230 187 199 207 217 247 216 254 180 219 219 249 244 280 136 283 271 271 291
13 16 7 10 2 0 355 349 345 341 335 333 330 327 325 328 316 237 35 299 321 245 259 137 132 99 192 207 129 188 183 207 247 202 231 180 217 207 232 247 230 324 331 283 290 276 276
13 10 5 5 1 356 352 345 341 338 333 330 325 324 323 221 221 285 301 296 242 228 239 158 147 185 184 208 174 143 183 224 242 250 220 275 269 214 231 214 244 353 265 255 257 258 255
10 9 3 4 359 354 346 342 340 337 333 328 322 317 289 306 355 345 290 237 223 239 131 155 183 175 193 184 198 188 186 197 205 203 212 211 205 213 248 228 204 239 262 258 239 228 246
9 4 360 359 357 350 345 343 340 337 334 328 319 315 198 257 310 283 245 225 243 212 195 51 244 196 199 179 201 191 192 207 222 220 274 211 200 200 183 241 253 210 253 274 293 285 17
7 4 360 357 354 350 346 344 341 337 335 331 312 202 227 188 224 245 234 223 219 240 63 210 174 218 206 190 212 197 208 213 208 225 244 217 224 129 201 220 232 237 253 268 278 268 264
6 8 3 358 356 349 349 345 342 338 334 335 294 240 156 190 217 220 232 241 234 16 325 277 219 208 197 199 195 193 199 216 218 198 239 328 254 178 175 232 235 269 311 236 229 268 279
5 2 0 360 353 352 352 347 344 341 334 332 250 225 104 166 198 218 222 229 230 153 255 236 262 199 253 185 202 195 223 113 233 181 220 239 227 164 164 219 250 181 232 251 284 290 305
359 1 357 359 352 357 350 347 347 347 338 279 284 229 132 198 205 218 224 239 28 222 219 244 294 278 274 218 225 263 227 191 194 237 201 222 224 251 229 245 225 293 293 225 252 228 270
0 360 357 357 360 352 351 349 347 349 356 313 268 47 165 235 224 212 223 259 188 228 222 213 228 256 219 230 266 246 240 82 166 245 235 205 228 240 243 244 197 243 243 252 269 280 262
358 358 358 357 355 356 353 350 347 345 350 295 274 193 149 211 280 298 216 221 204 248 261 241 262 237 206 221 213 210 241 136 211 260 21 359 255 249 266 93 276 194 243 239 229 243 245
350 356 355 357 356 357 355 352 348 344 343 283 246 360 3 192 214 229 275 228 217 182 240 206 212 233 218 226 199 226 229 166 213 122 221 235 249 261 260 278 275 266 251 220 229 239 255
345 348 351 354 354 357 356 355 352 345 338 253 313 331 198 334 342 242 153 220 242 224 196 213 242 208 229 240 238 222 210 227 225 179 230 226 243 260 279 269 260 257 246 261 275 235 247
339 340 351 351 353 359 357 359 359 354 340 337 2 247 276 118 198 235 188 215 235 269 184 302 212 242 215 233 319 23 330 347 345 307 250 238 241 248 257 252 248 231 242 257 251 244 251
359 354 352 350 354 359 358 0 1 359 359 308 20 287 272 256 236 209 265 201 229 198 292 198 281 249 45 322 280 265 262 250 247 243 244 268 245 265 268 273 255 244 268 305 249 260 254
348 348 348 349 354 353 355 360 360 360 351 317 5 322 309 284 269 157 256 220 236 119 246 235 212 31 329 284 252 234 228 235 235 231 224 225 258 257 255 259 274 265 182 234 246 259 263
336 341 341 343 344 347 357 1 357 1 353 314 55 314 287 302 63 358 255 231 241 210 205 220 168 279 277 258 216 233 228 214 215 222 215 219 215 261 252 253 259 275 331 67 299 266 307
320 333 335 339 339 349 356 358 357 360 352 325 15 350 276 285 60 330 271 308 241 289 275 177 187 226 226 245 252 231 232 246 233 206 179 211 209 226 231 254 249 287 51 302 227 353 355
294 316 325 331 331 343 351 355 354 356 352 333 13 4 319 304 324 349 305 289 289 275 261 84 180 220 230 226 245 244 250 233 233 242 198 201 212 227 234 246 243 36 285 261 33 12 359
274 293 312 321 327 339 344 349 350 354 348 339 288 54 328 267 349 326 290 294 294 330 321 274 320 288 238 252 233 261 245 233 273 234 221 256 231 268 261 235 81 43 38 35 358 358 348